Weather Roundup
Issued by NWS Springfield, MO

Home | Current Version | Previous Version | Text Only | Print | Product List | Glossary On
Versions: 1 2 3 4 5 6 7 8 9 10 11 12 13 14 15 16 17 18 19 20 21 22 23 24 25 26 27 28 29 30 31 32 33 34 35 36 37 38 39 40 41 42 43 44 45 46 47 48 49 50
000
NZUS99 KSGF 171957
HRRSGF

HOURLY WEATHER
NATIONAL WEATHER SERVICE SPRINGFIELD MO
200 PM CST FRI NOV 17 2017

......SGF CWA......

CITY           SKY/WX    TMP DP  RH WIND       PRES   REMARKS
SPRINGFIELD    CLOUDY    64  57  78 S16       29.66F
JOPLIN         CLOUDY    69  62  78 S22G33    29.63F
WEST PLAINS    CLOUDY    60  54  80 S15G22    29.79F
ROLLA          CLOUDY    60  52  74 S16G29    29.71F
BRANSON        CLOUDY    63  57  82 SE8       29.75F

......SURROUNDING SGF CWA......

CITY           SKY/WX    TMP DP  RH WIND       PRES   REMARKS
CHANUTE        PTSUNNY   74  60  61 S22G32    29.57F
PARSONS        MOSUNNY   75  61  61 S18G31    29.57F
COFFEYVILLE    SUNNY     77  61  57 S29G40    29.55F
EMPORIA        CLOUDY    75  56  51 S22G29    29.52F
HARRISON AR    CLOUDY    63  59  87 S12       29.76F

......KANSAS AND MISSOURI......

CITY           SKY/WX    TMP DP  RH WIND       PRES   REMARKS
KANSAS CTY INT CLOUDY    66  59  78 SW9       29.54F
SEDALIA        CLOUDY    65  58  78 S24G32    29.61F
ST JOSEPH      CLOUDY    63  57  81 S6        29.52F HAZE
ST LOUIS       PTSUNNY   54  43  66 S15G26    29.77F
SPIRIT OF STL  PTSUNNY   57  46  67 VRB7      29.75F
WICHITA        PTSUNNY   73  52  47 SW15      29.55F
TOPEKA         MOSUNNY   71  59  65 S15G21    29.51F
OLATHE         CLOUDY    66  58  75 S13G30    29.54F

......TENNESSEE......

CITY           SKY/WX    TMP DP  RH WIND       PRES   REMARKS
MEMPHIS        NOT AVBL
NASHVILLE      PTSUNNY   66  33  29 S12       30.02F

......ARKANSAS.......

CITY           SKY/WX    TMP DP  RH WIND       PRES   REMARKS
FAYETTEVILLE   PTSUNNY   69  62  78 S17G26    29.71F
FT SMITH       CLOUDY    74  63  68 S15G25    29.75F
LITTLE ROCK    CLOUDY    72  63  73 S18G28    29.85F

......OKLAHOMA.......

CITY           SKY/WX    TMP DP  RH WIND       PRES   REMARKS
TULSA          CLOUDY    81  61  50 S24G33    29.60F
PONCA CITY     CLOUDY    78  52  40 SW16G29   29.57F
MCALESTER      PTSUNNY   79  63  57 S16G38    29.72F
OKLAHOMA CITY  CLOUDY    80  54  40 SW26G33   29.64F

......IOWA............

CITY           SKY/WX    TMP DP  RH WIND       PRES   REMARKS
DES MOINES     NOT AVBL
QUAD CITIES    CLOUDY    43  37  79 S12       29.69F HAZE

......ILLINOIS........

CITY           SKY/WX    TMP DP  RH WIND       PRES   REMARKS
QUINCY         NOT AVBL
CHICAGO        CLOUDY    44  31  60 S15       29.84F



USA.gov is the U.S. government's official web portal to all federal, state and local government web resources and services.